Flag for U.S.A. Weather past 2 weeks in Independence, Missouri, U.S.A.

Now
81 °F

Scattered clouds.


Feels Like: 84 °F
Forecast: 72 / 89 °F
Wind: 9 mph from South

Location: Lee's Summit Municipal Airport

Current Time: Sep 2, 2015 at 12:28:55 PM

Latest Report: Sep 2, 2015 at 11:53 AM


Visibility: 10 mi

Pressure: 30.04 "Hg

Humidity: 65%

Dew point: 68 °F

Location of IndependenceLocation

Historic Weather in Independence — Graph

°F

Independence temperature yesterday

Maximum temperature yesterday: 89 °F (at 3:53 PM)
Minimum temperature yesterday: 73 °F (at 5:53 AM)
Average temperature yesterday: 80 °F

Past Weeks' High & Low Weather Summary

 TemperatureHumidityPressure
High89 °F (Sep 1, 3:53 PM)97% (Aug 24, 6:53 AM)30.20 "Hg (Aug 24, 6:53 AM)
Low52 °F (Aug 24, 6:53 AM)33% (Aug 24, 1:53 PM)29.65 "Hg (Aug 18, 5:53 PM)
Average72 °F71%30.00 "Hg
* Reported Aug 18 10:53 AM — Sep 2 10:53 AM, Independence, Weather by CustomWeather, © 2015

Note: Actual official high and low records may vary slightly from our data, if they occured in-between our weather recording intervals... More about our weather records

Advertising

Independence weather history for previous 24 hours

 ConditionsComfort  
Time TempWeatherWind HumidityBarometerVisibility
10:53 AM
Wed, Sep 2
78 °FSunny.No wind71%30.07 "Hg10 mi
9:53 AM75 °FOvercast.3 mph76%30.07 "Hg10 mi
8:53 AM74 °FPartly sunny.7 mph76%30.05 "Hg10 mi
7:53 AM71 °FPartly sunny.8 mph81%30.03 "Hg10 mi
6:53 AM70 °FClear.10 mph84%30.00 "Hg10 mi
5:53 AM71 °FClear.10 mph81%29.98 "Hg10 mi
4:53 AM71 °FClear.8 mph78%29.98 "Hg10 mi
3:53 AM72 °FClear.8 mph76%29.97 "Hg10 mi
2:53 AM73 °FClear.9 mph74%29.97 "Hg10 mi
1:53 AM74 °FClear.9 mph69%29.98 "Hg10 mi
12:53 AM74 °FClear.8 mph71%30.00 "Hg10 mi
11:53 PM
Tue, Sep 1
76 °FClear.7 mph67%30.01 "Hg10 mi
10:53 PM77 °FClear.10 mph64%30.01 "Hg10 mi
9:53 PM79 °FClear.7 mph60%30.01 "Hg10 mi
8:53 PM79 °FClear.6 mph62%30.00 "Hg10 mi
7:53 PM82 °FSunny.7 mph56%29.98 "Hg10 mi
6:53 PM85 °FSunny.9 mph51%29.97 "Hg10 mi
5:53 PM87 °FSunny.10 mph46%29.96 "Hg10 mi
3:53 PM89 °FSunny.8 mph50%29.98 "Hg10 mi
2:53 PM88 °FPassing clouds.13 mph52%30.00 "Hg10 mi
1:53 PM88 °FSunny.12 mph52%30.01 "Hg10 mi
12:53 PM87 °FSunny.12 mph53%30.01 "Hg10 mi
Weather by CustomWeather, © 2015

See weather overviewHow to use our weather pages